Regional Weather Roundup
Issued by NWS Newport/Morehead, NC

Current Version | Previous Version | Text Only | Print | Product List | Glossary On
Versions: 1 2 3 4 5 6 7 8 9 10 11 12 13 14 15 16 17 18 19 20 21 22 23 24 25 26 27 28 29 30 31 32 33 34 35 36 37 38 39 40 41 42 43 44 45 46 47 48 49 50
000
ASUS42 KMHX 292310
RWRMHX
WEATHER ROUNDUP FOR EASTERN NORTH CAROLINA
NATIONAL WEATHER SERVICE NEWPORT/MOREHEAD CITY NC
700 PM EDT WED OCT 29 2014

NOTE: "FAIR" INDICATES FEW OR NO CLOUDS BELOW 12,000 FEET
WITH NO SIGNIFICANT WEATHER AND/OR OBSTRUCTIONS TO VISIBILITY

NCZ015>017-031-032-045>047-102-103-300000-
NORTH COAST

CITY           SKY/WX    TMP DP  RH WIND       PRES   REMARKS
EDENTON        MOCLDY    71  58  64 CALM      29.92S
ELIZABETH CITY CLOUDY    70  59  68 SW3       29.92R
KITTY HAWK     MOCLDY    69  64  84 S3        29.92R
MANTEO         MOCLDY    68  64  86 S8        29.93R

$$

NCZ045>047-081-094-103-104-300000-
CENTRAL COAST

CITY           SKY/WX    TMP DP  RH WIND       PRES   REMARKS
FRISCO         PTCLDY    71  67  87 SW8       29.94S
SWANQUARTER      N/A     70 N/A N/A S5        29.88S

$$

NCZ095-097-098-100-101-300000-
SOUTHERN COAST

CITY           SKY/WX    TMP DP  RH WIND       PRES   REMARKS
BEAUFORT       PTCLDY    71  67  87 S10       29.94S
CEDAR ISLAND     N/A     70 N/A N/A S6        29.97S
JACKSONVILLE   MOCLDY    71  63  75 S6        29.93R
PINEY ISLAND   MOCLDY    72  64  76 S7        29.94R
WILMINGTON     MOCLDY    71  63  75 S8        29.94S


$$

NCZ011>013-027>030-043-044-078>080-089-090>093-098-300000-
COASTAL PLAIN

CITY           SKY/WX    TMP DP  RH WIND       PRES   REMARKS
AHOSKIE        NOT AVBL
CLINTON        PTCLDY    69  60  71 CALM      29.93S
ELIZABETHTOWN  PTCLDY    71  59  65 CALM      29.93S
GOLDSBORO      PTCLDY    71  63  75 CALM      29.91R
GREENVILLE     PTCLDY    64  61  88 CALM      29.94S
HAVELOCK       MOCLDY    70  64  81 S6        29.95R
KENANSVILLE    PTCLDY    66  58  77 CALM      29.94R HAZE
KINSTON        PTCLDY    66  59  77 CALM      29.93R
NEW BERN       CLOUDY    70  63  78 S5        29.94R
RICHLANDS      CLOUDY    68  61  77 S5        29.94S
ROCKY MOUNT    MOCLDY    67  60  78 CALM      29.91R
WASHINGTON     MOCLDY    68  59  73 CALM      29.93S
WHITEVILLE     MOCLDY    70  63  79 CALM      29.94R

$$

AMZ130-135-150-152-154-156-158-170-250-252-270-ANZ085-086-088-633-658-670-300000-
MARINE OBSERVATIONS

STATION/POSITION TIME  TEMP    WIND        PRES    WAVE   SWELL
                       AIR SEA DIR/SP/G            HT/PER HT/PER
                 (UTC) (F)     (DEG/KT/KT) (MB)    (FT/S) (FT/S)
CHESAPEAKE LIGHT 2200   73     240/ 14/ 15 1012.7
64 E VA BEACH    2300   69 67  200/ 12/ 12 1012.8    3/ 5   2/ 9
DUCK             2300          200/  6/  6   N/A
2 E DUCK         NOT AVBL
10 NE DUCK       2200      68                N/A     2/ 7
OREGON INLET     2300   69 68  180/ 11/ 13 1013.4
13E OREGON INLT  2300      70                N/A     4/ 7
HATTERAS CG      2300          220/  8/ 12   N/A
DIAMOND BUOY     2300   76     210/ 16/ 19 1014.1    4/ 5
17 S OCRACOKE    2200          VRB 14/ 17  1014.1
CAPE LOOKOUT     2200   72     210/  7/  9 1014.0
BEAUFORT LAB     2300          210/  7/ 10   N/A
30 SE NEW RIVER  2200   74 74  230/ 14/ 17 1013.8
5 SE WRIGHTSVLE  2200   69 71  220/ 12/ 14   N/A
225 S CAPE HAT   2213   75 77  190/  6/  8 1017.6    2/ 9   2/ 9
41 SE CHARLESTON 2300   76 77  210/ 12/ 14 1014.9    2/ 4   2/ 8

$$



USA.gov is the U.S. government's official web portal to all federal, state and local government web resources and services.